weather.gov     
National Weather Service

Terminal Aerodrome Forecast
NWS Homepage
This page is being discontinued on March 12, 2014.
The same data is available at this site. Please update your bookmarks.
Thank you, and we apologize for the inconvenience.
Please send an email to SR-SRH.Webmaster@noaa.gov with any concerns.


Current Version
Previous Version:    01  02  03  04  05  06  07  08  09  10  11  12  13  14  15  16  17  18  19  20  21  22  23  24  25  26  27  28  29  30  
   31  
[Printable]
846
FTUS45 KABQ 142300 RRA
TAFABQ
TAF
KABQ 142342Z 1500/1524 20011G18KT P6SM VCSH SCT070 SCT150
      TEMPO 1500/1502 VRB14G24KT SCT070 BKN100
     FM150200 15008KT P6SM SCT080 SCT200
     FM150500 12005KT P6SM SCT120 SCT200
     FM151100 VRB05KT P6SM SCT035 SCT150
     FM152100 VRB06KT P6SM SCT070 SCT140=


U.S. Dept. of Commerce
NOAA National Weather Service
1325 East West Highway
Silver Spring, MD 20910
E-mail: w-nws.webmaster@noaa.gov
Page last modified: May 16, 2007
NATIONAL WEATHER SERVICE: for Safety, for Work, for Fun - FOR LIFE